Regional Weather Roundup
Issued by NWS

Home | Current Version | Previous Version | Graphics & Text | Print | Product List | Glossary Off
Versions: 1 2 3 4 5 6 7 8 9 10 11 12 13 14 15 16 17 18 19 20 21 22 23 24 25 26 27 28 29 30 31 32 33 34 35 36 37 38 39 40 41 42 43 44 45 46 47 48 49 50

000
ASUS43 KBIS 160359
RWRND

NORTH DAKOTA REGIONAL WEATHER ROUNDUP
NATIONAL WEATHER SERVICE BISMARCK ND
1100 PM CDT MON SEP 15 2014

NOTE: "FAIR" INDICATES FEW OR NO CLOUDS BELOW 12,000 FEET WITH NO
SIGNIFICANT WEATHER AND/OR OBSTRUCTIONS TO VISIBILITY.


NDZ001>003-009>011-017-160500-
NORTHWEST NORTH DAKOTA

CITY           SKY/WX    TMP DP  RH WIND       PRES   REMARKS
WILLISTON      CLEAR     44  34  67 CALM      30.06S
MINOT          CLEAR     51  37  58 SW7       30.07F
MINOT AFB      CLEAR     47  38  71 S7        30.06F
$$

NDZ018>021-031>035-040>046-160500-
SOUTHWEST NORTH DAKOTA

CITY           SKY/WX    TMP DP  RH WIND       PRES   REMARKS
BISMARCK       CLEAR     44  39  82 SE6       30.13S
GARRISON         N/A     44  41  89 CALM      30.09S
HETTINGER ARPT CLEAR     48  39  71 SE7       30.11F
$$

NDZ004>008-012>016-024-026-027-054-160500-
NORTHEAST NORTH DAKOTA

CITY           SKY/WX    TMP DP  RH WIND       PRES   REMARKS
GRAND FORKS    CLEAR     51  40  65 SW8       30.08S
DEVILS LAKE    CLEAR     48  37  66 SW7       30.08S
$$

NDZ022-023-025-028>030-036>039-047>053-160500-
SOUTHEAST NORTH DAKOTA

CITY           SKY/WX    TMP DP  RH WIND       PRES   REMARKS
FARGO          CLEAR     55  38  52 SW14      30.13S
$$



USA.gov is the U.S. government's official web portal to all federal, state and local government web resources and services.